Regional Weather Roundup
Issued by NWS

Home | Current Version | Previous Version | Graphics & Text | Print | Product List | Glossary On
Versions: 1 2 3 4 5 6 7 8 9 10 11 12 13 14 15 16 17 18 19 20 21 22 23 24 25 26 27 28 29 30 31 32 33 34 35 36 37 38 39 40 41 42 43 44 45 46 47 48 49 50
000
ASUS45 KCYS 221810
RWRWY

WYOMING REGIONAL WEATHER ROUNDUP
NATIONAL WEATHER SERVICE CHEYENNE WY
1200 PM MDT SUN APR 22 2018

NOTE:  "FAIR" INDICATES FEW OR NO CLOUDS BELOW 12,000 FEET
WITH NO SIGNIFICANT WEATHER AND/OR OBSTRUCTIONS TO VISIBILITY.

WYZ001-221900-
YELLOWSTONE NATIONAL PARK

CITY           SKY/WX    TMP DP  RH WIND       PRES   REMARKS
LK YELLOWSTONE   N/A     48  20  32 VRB5      30.20F
6HR MIN TEMP:  22; 6HR MAX TEMP:  48;

W YELLOWSTONE  NOT AVBL

$$
WYZ002>013-054>058-071-098>099-221900-
NORTHERN WYOMING

CITY           SKY/WX    TMP DP  RH WIND       PRES   REMARKS
JACKSON        FAIR      58  27  30 SW7       30.16F
CODY           FAIR      58  28  32 CALM      30.12F
GREYBULL       FAIR      61  35  37 SE7       30.09F
6HR MIN TEMP:  41; 6HR MAX TEMP:  61;

WORLAND        FAIR      60  31  33 VRB5      30.10F
6HR MIN TEMP:  35; 6HR MAX TEMP:  60;

SHERIDAN       FAIR      58  28  32 VRB7G17   30.12F
6HR MIN TEMP:  35; 6HR MAX TEMP:  59;

BUFFALO        FAIR      55  28  35 SE9       30.15F
6HR MIN TEMP:  41; 6HR MAX TEMP:  55;

GILLETTE       FAIR      58  41  53 VRB3      30.14F
6HR MIN TEMP:  30; 6HR MAX TEMP:  58;

HULETT         FAIR      57  36  44 N3        30.15F
NEWCASTLE      FAIR      59  34  38 S7        30.15F

$$
WYZ014>020-022>026-101>103-221900-
CENTRAL WYOMING

CITY           SKY/WX    TMP DP  RH WIND       PRES   REMARKS
BIG PINEY      FAIR      56  23  27 VRB7      30.20F
6HR MIN TEMP:  20; 6HR MAX TEMP:  57;

PINEDALE       FAIR      55  25  30 NW10G20   30.20F
DUBOIS         FAIR      57  21  24 NW16G23   30.15F
LANDER         FAIR      61  32  33 VRB5      30.10F
6HR MIN TEMP:  40; 6HR MAX TEMP:  62;

RIVERTON       FAIR      61  31  32 NE8       30.11F
6HR MIN TEMP:  37; 6HR MAX TEMP:  61;

CASPER         FAIR      56  38  50 CALM      30.16F
6HR MIN TEMP:  31; 6HR MAX TEMP:  56;

DOUGLAS        FAIR      57  40  52 CALM      30.16F
6HR MIN TEMP:  30; 6HR MAX TEMP:  58;


$$
WYZ021-027>030-104>119-221900-
SOUTHERN WYOMING

CITY           SKY/WX    TMP DP  RH WIND       PRES   REMARKS
EVANSTON       FAIR      60  23  24 MISG      30.20F
6HR MIN TEMP:  37; 6HR MAX TEMP:  60;

KEMMERER       FAIR      57  23  26 NW5       30.21F
FORT BRIDGER   FAIR      60  22  22 N3        30.24S
ROCK SPRINGS   FAIR      59  19  21 N6        30.20F
6HR MIN TEMP:  35; 6HR MAX TEMP:  59;

DIXON          FAIR      58  33  38 SW9       30.23F
RAWLINS          N/A    N/A N/A N/A MISG      30.18F
SARATOGA       FAIR      57  28  33 CALM      30.20F
LARAMIE        FAIR      54  31  41 NE8       30.21F
6HR MIN TEMP:  26; 6HR MAX TEMP:  54;

CHEYENNE       FAIR      56  30  37 N12G21    30.19S
6HR MIN TEMP:  29; 6HR MAX TEMP:  57;

TORRINGTON     FAIR      45  40  82 S6        30.18F
6HR MIN TEMP:  30; 6HR MAX TEMP:  45;

PINE BLUFFS    FAIR      54  36  50 N3        30.19F

$$



USA.gov is the U.S. government's official web portal to all federal, state and local government web resources and services.